| time (UTC) | temp F | wind direction | speed MPH | gust MPH | rain 1hr in | rain 24hr in | rain mn in | humidity % | barometer mb |
| 20260904055019 | 37 | 194 | 5.0 | 7.0 | 0.07 | 0.87 | 0.86 | 90 | 1014.6 |
| 20260904053117 | 35 | 209 | 4.0 | 7.0 | 0.08 | 0.86 | 0.85 | 91 | 1015.3 |
| 20260904052118 | 36 | 208 | 3.0 | 6.0 | 0.09 | 0.86 | 0.85 | 91 | 1015.5 |
| 20260904050117 | 40 | 247 | 0.0 | 0.0 | 0.09 | 0.83 | 0.81 | 90 | 1015.7 |
| 20260904045216 | 40 | 247 | 0.0 | 1.0 | 0.11 | 0.81 | 0.80 | 90 | 1016.0 |
| 20260904044219 | 41 | 225 | 0.0 | 1.0 | 0.12 | 0.79 | 0.78 | 90 | 1015.8 |
| 20260904043218 | 41 | 258 | 1.0 | 2.0 | 0.13 | 0.78 | 0.77 | 89 | 1015.8 |
| 20260904042317 | 41 | 229 | 0.0 | 2.0 | 0.14 | 0.77 | 0.76 | 88 | 1015.7 |
| 20260904035416 | 41 | 248 | 2.0 | 4.0 | 0.17 | 0.71 | 0.70 | 84 | 1015.7 |
| 20260904033517 | 42 | 274 | 5.0 | 7.0 | 0.16 | 0.66 | 0.65 | 86 | 1015.8 |
| 20260904032520 | 43 | 278 | 2.0 | 5.0 | 0.16 | 0.64 | 0.62 | 87 | 1015.7 |
| 20260904030617 | 44 | 270 | 0.0 | 0.0 | 0.12 | 0.57 | 0.56 | 90 | 1015.5 |
| 20260904025619 | 44 | 234 | 0.0 | 1.0 | 0.11 | 0.54 | 0.53 | 89 | 1015.5 |
| 20260904024716 | 45 | 204 | 2.0 | 4.0 | 0.10 | 0.52 | 0.51 | 88 | 1015.4 |
| 20260904023737 | 45 | 270 | 0.0 | 0.0 | 0.11 | 0.51 | 0.50 | 85 | 1015.3 |
| 20260904022816 | 45 | 270 | 0.0 | 1.0 | 0.11 | 0.49 | 0.48 | 85 | 1015.3 |
| 20260904021818 | 45 | 314 | 2.0 | 4.0 | 0.12 | 0.47 | 0.46 | 85 | 1015.3 |
| 20260904020817 | 45 | 315 | 2.0 | 3.0 | 0.13 | 0.46 | 0.45 | 86 | 1015.3 |
| 20260904015817 | 46 | 360 | 1.0 | 3.0 | 0.13 | 0.44 | 0.43 | 86 | 1015.2 |
| 20260904014832 | 46 | 301 | 3.0 | 6.0 | 0.12 | 0.42 | 0.41 | 83 | 1015.2 |
| 20260904013832 | 45 | 290 | 1.0 | 3.0 | 0.12 | 0.40 | 0.39 | 81 | 1015.2 |
| 20260904012934 | 45 | 251 | 2.0 | 3.0 | 0.11 | 0.38 | 0.37 | 80 | 1015.1 |
| 20260904011820 | 46 | 233 | 1.0 | 2.0 | 0.10 | 0.35 | 0.34 | 80 | 1015.4 |
| 20260904010917 | 46 | 315 | 0.0 | 0.0 | 0.09 | 0.33 | 0.32 | 80 | 1015.5 |
| 20260904005916 | 46 | 270 | 0.0 | 0.0 | 0.09 | 0.31 | 0.30 | 78 | 1015.3 |
| 20260904004934 | 47 | 337 | 1.0 | 2.0 | 0.08 | 0.30 | 0.28 | 80 | 1015.3 |
| 20260904004016 | 47 | 246 | 0.0 | 1.0 | 0.08 | 0.28 | 0.27 | 82 | 1015.2 |
| 20260904003918 | 47 | 292 | 0.0 | 0.0 | 0.07 | 0.28 | 0.27 | 81 | 1015.2 |
| 20260904003016 | 47 | 41 | 1.0 | 3.0 | 0.07 | 0.27 | 0.26 | 80 | 1015.2 |
| 20260904002018 | 48 | 29 | 1.0 | 2.0 | 0.05 | 0.25 | 0.24 | 78 | 1015.1 |
| 20260904000116 | 49 | 92 | 6.0 | 8.0 | 0.03 | 0.23 | 0.21 | 74 | 1015.1 |
| 20260903235118 | 49 | 90 | 6.0 | 9.0 | 0.02 | 0.22 | 0.21 | 71 | 1015.0 |
| 20260903234117 | 50 | 91 | 6.0 | 10.0 | 0.01 | 0.21 | 0.20 | 70 | 1015.2 |
| 20260903234018 | 50 | 100 | 6.0 | 10.0 | 0.01 | 0.21 | 0.20 | 69 | 1015.0 |
| 20260903233117 | 50 | 52 | 3.0 | 7.0 | 0.00 | 0.20 | 0.19 | 69 | 1015.1 |
| 20260903232118 | 52 | 62 | 4.0 | 6.0 | 0.00 | 0.20 | 0.19 | 60 | 1015.1 |
| 20260903230116 | 54 | 236 | 0.0 | 1.0 | 0.00 | 0.20 | 0.19 | 55 | 1015.0 |
| 20260903224117 | 53 | 278 | 2.0 | 4.0 | 0.00 | 0.20 | 0.19 | 58 | 1015.0 |
| 20260903223117 | 54 | 254 | 3.0 | 5.0 | 0.00 | 0.20 | 0.19 | 59 | 1015.1 |
| 20260903222118 | 54 | 293 | 2.0 | 4.0 | 0.00 | 0.20 | 0.19 | 54 | 1015.2 |
| 20260903221117 | 56 | 306 | 2.0 | 5.0 | 0.00 | 0.20 | 0.19 | 53 | 1015.1 |
| 20260903220117 | 57 | 69 | 3.0 | 7.0 | 0.00 | 0.20 | 0.19 | 59 | 1014.9 |
| 20260903215118 | 57 | 92 | 11.0 | 14.0 | 0.00 | 0.20 | 0.19 | 59 | 1014.6 |
| 20260903214116 | 58 | 83 | 5.0 | 8.0 | 0.00 | 0.20 | 0.19 | 58 | 1014.8 |
| 20260903213118 | 59 | 72 | 6.0 | 9.0 | 0.00 | 0.20 | 0.19 | 56 | 1014.6 |
| 20260903212117 | 59 | 102 | 3.0 | 5.0 | 0.00 | 0.20 | 0.19 | 57 | 1014.6 |
| 20260903211117 | 59 | 279 | 0.0 | 2.0 | 0.00 | 0.20 | 0.19 | 57 | 1014.7 |
| 20260903205216 | 59 | 91 | 4.0 | 6.0 | 0.00 | 0.20 | 0.19 | 58 | 1014.9 |
| 20260903203316 | 58 | 14 | 2.0 | 4.0 | 0.00 | 0.20 | 0.19 | 59 | 1015.0 |
| 20260903203217 | 58 | 22 | 0.0 | 1.0 | 0.00 | 0.20 | 0.19 | 59 | 1015.0 |
| 20260903202215 | 59 | 112 | 2.0 | 3.0 | 0.00 | 0.20 | 0.19 | 58 | 1015.3 |
| 20260903201217 | 58 | 90 | 1.0 | 3.0 | 0.00 | 0.20 | 0.19 | 60 | 1015.1 |
| 20260903200216 | 59 | 202 | 2.0 | 4.0 | 0.00 | 0.20 | 0.19 | 60 | 1015.3 |
| 20260903195315 | 59 | 230 | 0.0 | 1.0 | 0.00 | 0.20 | 0.19 | 60 | 1015.3 |
| 20260903193317 | 58 | 78 | 0.0 | 1.0 | 0.00 | 0.20 | 0.19 | 60 | 1015.3 |
| 20260903192319 | 57 | 292 | 3.0 | 4.0 | 0.00 | 0.20 | 0.19 | 61 | 1015.5 |
| 20260903192217 | 57 | 277 | 2.0 | 3.0 | 0.00 | 0.20 | 0.19 | 61 | 1015.5 |
| 20260903191217 | 58 | 208 | 1.0 | 3.0 | 0.00 | 0.20 | 0.19 | 63 | 1015.6 |
| 20260903190316 | 58 | 239 | 1.0 | 3.0 | 0.00 | 0.20 | 0.19 | 64 | 1015.6 |
| 20260903185318 | 58 | 265 | 3.0 | 6.0 | 0.00 | 0.20 | 0.19 | 64 | 1015.6 |
| 20260903185217 | 58 | 240 | 3.0 | 6.0 | 0.00 | 0.20 | 0.19 | 65 | 1015.6 |
| 20260903183217 | 57 | 282 | 2.0 | 6.0 | 0.00 | 0.20 | 0.19 | 67 | 1016.1 |
| 20260903182315 | 56 | 164 | 1.0 | 3.0 | 0.00 | 0.20 | 0.19 | 70 | 1016.1 |
| 20260903181317 | 56 | 218 | 2.0 | 5.0 | 0.00 | 0.20 | 0.19 | 71 | 1016.3 |
| 20260903175416 | 55 | 190 | 3.0 | 4.0 | 0.00 | 0.20 | 0.19 | 72 | 1016.3 |
| 20260903174417 | 55 | 184 | 3.0 | 5.0 | 0.00 | 0.20 | 0.19 | 75 | 1016.5 |
| 20260903173416 | 54 | 201 | 3.0 | 6.0 | 0.00 | 0.20 | 0.19 | 78 | 1016.5 |
| 20260903172417 | 53 | 201 | 5.0 | 7.0 | 0.00 | 0.20 | 0.19 | 81 | 1016.5 |
| 20260903171416 | 52 | 247 | 1.0 | 1.0 | 0.00 | 0.20 | 0.19 | 82 | 1016.4 |
| 20260903170417 | 51 | 218 | 3.0 | 4.0 | 0.00 | 0.20 | 0.19 | 83 | 1016.3 |
| 20260903164419 | 50 | 187 | 2.0 | 4.0 | 0.00 | 0.20 | 0.19 | 83 | 1016.4 |
| 20260903162417 | 50 | 211 | 3.0 | 5.0 | 0.00 | 0.20 | 0.19 | 84 | 1016.4 |
| 20260903161418 | 50 | 165 | 4.0 | 7.0 | 0.00 | 0.20 | 0.19 | 85 | 1016.5 |
| 20260903155417 | 50 | 202 | 2.0 | 3.0 | 0.01 | 0.20 | 0.19 | 87 | 1016.6 |
| 20260903154418 | 50 | 204 | 4.0 | 6.0 | 0.01 | 0.20 | 0.19 | 89 | 1016.6 |
| 20260903153515 | 50 | 222 | 2.0 | 4.0 | 0.01 | 0.20 | 0.19 | 91 | 1016.6 |
| 20260903152518 | 49 | 187 | 3.0 | 4.0 | 0.01 | 0.20 | 0.19 | 91 | 1016.6 |
| 20260903150517 | 48 | 204 | 3.0 | 4.0 | 0.01 | 0.20 | 0.18 | 92 | 1016.4 |
| 20260903145517 | 48 | 204 | 2.0 | 3.0 | 0.00 | 0.19 | 0.18 | 92 | 1016.3 |
| 20260903143517 | 47 | 204 | 2.0 | 3.0 | 0.00 | 0.19 | 0.18 | 92 | 1016.2 |
| 20260903142525 | 47 | 202 | 0.0 | 1.0 | 0.00 | 0.19 | 0.18 | 93 | 1016.2 |
| 20260903141618 | 47 | 202 | 1.0 | 2.0 | 0.00 | 0.19 | 0.18 | 93 | 1016.2 |
| 20260903140717 | 47 | 202 | 1.0 | 2.0 | 0.00 | 0.19 | 0.18 | 92 | 1016.1 |
| 20260903135717 | 46 | 180 | 0.0 | 0.0 | 0.00 | 0.19 | 0.18 | 93 | 1015.8 |
| 20260903133815 | 46 | 337 | 0.0 | 0.0 | 0.01 | 0.19 | 0.18 | 92 | 1015.7 |
| 20260903132818 | 46 | 337 | 0.0 | 0.0 | 0.02 | 0.19 | 0.18 | 93 | 1015.6 |
| 20260903131817 | 47 | 251 | 1.0 | 3.0 | 0.03 | 0.19 | 0.18 | 93 | 1015.6 |
| 20260903130817 | 47 | 112 | 1.0 | 2.0 | 0.04 | 0.19 | 0.18 | 91 | 1015.4 |
| 20260903125832 | 47 | 86 | 2.0 | 4.0 | 0.04 | 0.19 | 0.18 | 92 | 1015.3 |
| 20260903124916 | 47 | 87 | 3.0 | 6.0 | 0.04 | 0.18 | 0.17 | 92 | 1015.2 |
| 20260903123917 | 47 | 75 | 2.0 | 4.0 | 0.06 | 0.18 | 0.17 | 93 | 1015.1 |
| 20260903122916 | 47 | 85 | 6.0 | 9.0 | 0.07 | 0.17 | 0.16 | 93 | 1015.3 |
| 20260903121918 | 47 | 45 | 2.0 | 2.0 | 0.08 | 0.16 | 0.15 | 92 | 1015.1 |
| 20260903120917 | 47 | 44 | 1.0 | 2.0 | 0.07 | 0.15 | 0.14 | 93 | 1015.0 |
| 20260903120016 | 47 | 68 | 2.0 | 4.0 | 0.09 | 0.15 | 0.14 | 92 | 1015.0 |
| 20260903115016 | 47 | 65 | 4.0 | 8.0 | 0.09 | 0.14 | 0.13 | 92 | 1014.9 |
| 20260903114018 | 48 | 61 | 3.0 | 4.0 | 0.08 | 0.12 | 0.11 | 91 | 1014.9 |
| 20260903113017 | 48 | 83 | 7.0 | 11.0 | 0.06 | 0.10 | 0.09 | 93 | 1014.9 |
| 20260903111019 | 49 | 86 | 4.0 | 8.0 | 0.04 | 0.08 | 0.07 | 91 | 1014.8 |
| 20260903110115 | 49 | 95 | 3.0 | 4.0 | 0.02 | 0.06 | 0.05 | 91 | 1014.8 |
| 20260903105115 | 50 | 90 | 0.0 | 0.0 | 0.01 | 0.05 | 0.04 | 91 | 1014.5 |
| 20260903104117 | 49 | 90 | 1.0 | 2.0 | 0.00 | 0.04 | 0.03 | 92 | 1014.4 |
| 20260903103215 | 49 | 89 | 2.0 | 2.0 | 0.00 | 0.04 | 0.03 | 91 | 1014.4 |
| 20260903102216 | 49 | 20 | 0.0 | 1.0 | 0.00 | 0.04 | 0.03 | 91 | 1014.2 |
| 20260903101217 | 49 | 247 | 0.0 | 0.0 | 0.01 | 0.04 | 0.03 | 90 | 1014.6 |
| 20260903100316 | 50 | 202 | 0.0 | 0.0 | 0.01 | 0.04 | 0.03 | 91 | 1014.3 |
| 20260903095316 | 50 | 239 | 1.0 | 2.0 | 0.01 | 0.04 | 0.03 | 91 | 1014.3 |
| 20260903094218 | 50 | 292 | 0.0 | 1.0 | 0.01 | 0.04 | 0.03 | 91 | 1014.3 |
| 20260903093215 | 49 | 267 | 1.0 | 3.0 | 0.01 | 0.04 | 0.03 | 91 | 1014.4 |
| 20260903092218 | 49 | 202 | 0.0 | 0.0 | 0.01 | 0.04 | 0.03 | 90 | 1014.4 |
| 20260903091316 | 49 | 202 | 0.0 | 0.0 | 0.00 | 0.03 | 0.02 | 91 | 1014.4 |
| 20260903090318 | 49 | 202 | 0.0 | 0.0 | 0.00 | 0.03 | 0.02 | 90 | 1014.5 |
| 20260903085318 | 50 | 202 | 0.0 | 0.0 | 0.00 | 0.03 | 0.02 | 90 | 1014.4 |
| 20260903084416 | 50 | 337 | 0.0 | 0.0 | 0.00 | 0.03 | 0.02 | 90 | 1014.3 |
| 20260903082518 | 50 | 337 | 0.0 | 0.0 | 0.01 | 0.03 | 0.02 | 89 | 1014.6 |
| 20260903081517 | 50 | 337 | 0.0 | 0.0 | 0.01 | 0.03 | 0.02 | 87 | 1014.6 |
| 20260903080616 | 50 | 337 | 0.0 | 0.0 | 0.01 | 0.03 | 0.02 | 87 | 1014.6 |
| 20260903075716 | 50 | 157 | 0.0 | 0.0 | 0.02 | 0.03 | 0.02 | 86 | 1014.6 |
| 20260903074815 | 50 | 157 | 0.0 | 0.0 | 0.02 | 0.03 | 0.02 | 84 | 1014.4 |
| 20260903072915 | 51 | 50 | 0.0 | 0.0 | 0.02 | 0.02 | 0.01 | 81 | 1014.6 |
| 20260903071917 | 51 | 356 | 0.0 | 2.0 | 0.02 | 0.02 | 0.01 | 81 | 1014.6 |
| 20260903070917 | 51 | 15 | 4.0 | 5.0 | 0.02 | 0.02 | 0.01 | 80 | 1014.4 |
| 20260903065023 | 52 | 171 | 1.0 | 3.0 | 0.01 | 0.01 | 0.01 | 79 | 1014.4 |
| 20260903063123 | 53 | 326 | 1.0 | 2.0 | 0.00 | 0.00 | 0.00 | 73 | 1014.1 |
| 20260903062125 | 53 | 12 | 3.0 | 6.0 | 0.00 | 0.00 | 0.00 | 72 | 1014.0 |
| 20260903061125 | 53 | 360 | 1.0 | 2.0 | 0.00 | 0.00 | 0.00 | 73 | 1014.0 |